N7ZEF Weather Reports


time (UTC)temp
C
wind
direction
speed
KPH
gust
KPH
rain 1hr
cm
rain 24hr
cm
rain mn
cm
humidity
%
barometer
mb
20260504190354 18 357 4.8 4.8 0.00 0.00 0.00 23 1010.8
20260504185356 17 142 0.0 8.0 0.00 0.00 0.00 25 1011.2
20260504184352 17 131 0.0 0.0 0.00 0.00 0.00 27 1011.3
20260504183350 16 256 0.0 6.4 0.00 0.00 0.00 27 1011.6
20260504182349 16 39 0.0 9.7 0.00 0.00 0.00 28 1011.7
20260504181348 16 44 0.0 8.0 0.00 0.00 0.00 28 1011.8
20260504180346 16 39 1.6 8.0 0.00 0.00 0.00 28 1012.2
20260504175345 16 359 3.2 16.1 0.00 0.00 0.00 28 1011.9
20260504174343 16 278 3.2 12.9 0.00 0.00 0.00 29 1012.3
20260504173342 17 20 6.4 14.5 0.00 0.00 0.00 28 1012.3
20260504172341 17 34 3.2 14.5 0.00 0.00 0.00 27 1012.3
20260504171339 17 266 4.8 11.3 0.00 0.00 0.00 27 1012.6
20260504170338 16 222 0.0 12.9 0.00 0.00 0.00 22 1012.4
20260504160328 16 217 1.6 11.3 0.00 0.00 0.00 23 1012.6
20260504150319 13 90 0.0 3.2 0.00 0.00 0.00 35 1013.2
20260504141312 11 114 0.0 0.0 0.00 0.00 0.00 36 1013.5
20260504140311 10 114 0.0 0.0 0.00 0.00 0.00 39 1013.3
20260504130303 5 159 0.0 4.8 0.00 0.00 0.00 50 1013.0
20260504120255 4 264 0.0 0.0 0.00 0.00 0.00 51 1012.3
20260504110246 5 10 0.0 1.6 0.00 0.00 0.00 48 1012.2
20260504100238 4 10 0.0 0.0 0.00 0.00 0.00 50 1011.9
20260504081223 6 10 0.0 0.0 0.00 0.00 0.00 43 1011.9
20260504080221 7 10 0.0 0.0 0.00 0.00 0.00 41 1011.9
20260504070213 7 10 0.0 4.8 0.00 0.00 0.00 40 1012.3
20260504060204 7 250 0.0 0.0 0.00 0.00 0.00 40 1012.4
20260504050156 10 250 0.0 0.0 0.00 0.00 0.00 36 1012.8
20260504045155 10 250 0.0 0.0 0.00 0.00 0.00 35 1012.8
20260504044153 10 250 0.0 0.0 0.00 0.00 0.00 34 1013.0
20260504043152 11 250 0.0 0.0 0.00 0.00 0.00 33 1013.0
20260504042151 10 217 1.6 4.8 0.00 0.00 0.00 31 1012.8
20260504041149 10 212 0.0 3.2 0.00 0.00 0.00 31 1012.8
20260504040148 11 291 0.0 3.2 0.00 0.00 0.00 31 1013.1
20260504035146 11 174 0.0 0.0 0.00 0.00 0.00 29 1012.8
20260504034145 11 174 0.0 0.0 0.00 0.00 0.00 28 1012.8
20260504033144 11 174 0.0 0.0 0.00 0.00 0.00 28 1012.8
20260504032142 11 174 0.0 0.0 0.00 0.00 0.00 27 1012.7
20260504031141 12 221 1.6 6.4 0.00 0.00 0.00 28 1012.8
20260504030139 12 311 0.0 0.0 0.00 0.00 0.00 26 1012.8
20260504025138 13 311 0.0 0.0 0.00 0.00 0.00 26 1012.7
20260504024137 13 269 0.0 0.0 0.00 0.00 0.00 24 1012.6
20260504023135 14 269 0.0 0.0 0.00 0.00 0.00 23 1012.4
20260504022134 15 269 0.0 0.0 0.00 0.00 0.00 22 1012.3
20260504021132 15 269 0.0 0.0 0.00 0.00 0.00 21 1012.3
20260504020131 16 297 1.6 11.3 0.00 0.00 0.00 20 1012.4
20260504015130 16 285 6.4 6.4 0.00 0.00 0.00 18 1012.4
20260504014128 16 302 3.2 16.1 0.00 0.00 0.00 18 1012.3
20260504013127 16 1 1.6 16.1 0.00 0.00 0.00 17 1012.3
20260504012126 16 329 0.0 6.4 0.00 0.00 0.00 17 1012.4
20260504011124 17 285 1.6 9.7 0.00 0.00 0.00 15 1012.4
20260504010123 17 301 0.0 12.9 0.00 0.00 0.00 14 1012.6
20260504005121 18 198 4.8 12.9 0.00 0.00 0.00 12 1012.6
20260504004120 18 269 0.0 9.7 0.00 0.00 0.00 11 1012.7
20260504003119 18 305 4.8 16.1 0.00 0.00 0.00 11 1012.8
20260504002117 19 218 0.0 4.8 0.00 0.00 0.00 10 1013.0
20260504001116 19 262 4.8 14.5 0.00 0.00 0.00 10 1013.1
20260504000114 19 304 3.2 11.3 0.00 0.00 0.00 11 1013.1
20260503235113 18 325 4.8 12.9 0.00 0.00 0.00 13 1013.2
20260503234112 18 316 3.2 9.7 0.00 0.00 0.00 11 1013.3
20260503233110 18 305 4.8 14.5 0.00 0.00 0.00 14 1013.5
20260503232109 19 233 3.2 20.9 0.00 0.00 0.00 13 1013.6
20260503231109 18 308 1.6 11.3 0.00 0.00 0.00 14 1013.7
20260503230106 19 20 1.6 11.3 0.00 0.00 0.00 14 1013.8
20260503225105 20 266 3.2 11.3 0.00 0.00 0.00 13 1014.0
20260503224102 20 174 0.0 11.3 0.00 0.00 0.00 13 1014.0
20260503223101 20 271 6.4 17.7 0.00 0.00 0.00 13 1014.1
20260503222100 20 240 1.6 11.3 0.00 0.00 0.00 12 1014.2
20260503221058 20 252 4.8 12.9 0.00 0.00 0.00 12 1014.5
20260503220057 20 25 4.8 16.1 0.00 0.00 0.00 13 1014.6
20260503215054 19 328 4.8 12.9 0.00 0.00 0.00 13 1014.9
20260503214053 19 17 3.2 11.3 0.00 0.00 0.00 14 1015.0
20260503213052 18 322 3.2 11.3 0.00 0.00 0.00 14 1015.2
20260503212050 18 318 4.8 16.1 0.00 0.00 0.00 14 1015.5
20260503211049 18 339 3.2 11.3 0.00 0.00 0.00 14 1015.6
20260503210047 18 260 4.8 19.3 0.00 0.00 0.00 15 1015.7
20260503205046 18 309 6.4 14.5 0.00 0.00 0.00 15 1016.0
20260503204045 18 278 4.8 14.5 0.00 0.00 0.00 14 1016.1
20260503203043 19 321 4.8 17.7 0.00 0.00 0.00 13 1016.4
20260503202042 19 295 3.2 12.9 0.00 0.00 0.00 14 1016.4
20260503201041 18 285 4.8 17.7 0.00 0.00 0.00 14 1016.8
20260503200039 18 37 0.0 4.8 0.00 0.00 0.00 16 1016.8
20260503195038 17 280 3.2 16.1 0.00 0.00 0.00 16 1016.9
20260503194036 18 321 4.8 12.9 0.00 0.00 0.00 15 1016.9
20260503193039 18 1 6.4 14.5 0.00 0.00 0.00 16 1017.0
20260503192034 18 283 3.2 14.5 0.00 0.00 0.00 16 1017.3
20260503191032 18 307 1.6 12.9 0.00 0.00 0.00 16 1017.3